This demonstration page uses our WeatherBlox Daily Observations layout. Learn more.

39.01783, -85.05884

Hourly Observations for June 26, 2019

Temp ( °F °C ) Dew Point ( °F °C ) Humidity (%) Winds ( mph kmh ) Pressure ( in mb ) Visibility ( mi km ) Precip ( " mm )
12:52 am 00:52 Clear 68 20 61 16.1 78 78 SW 7 11 30.03 1017 10 16.09344 0 0
1:52 am 01:52 Clear 67 19.4 61 16.1 81 81 SSW 6 9 30.03 1017 10 16.09344 0 0
2:52 am 02:52 Mostly Clear 66 18.9 61 16.1 84 84 SSW 5 7 30.03 1017 10 16.09344 0 0
3:52 am 03:52 Mostly Clear 66 18.9 61 16.1 84 84 SSW 8 13 30.03 1017 10 16.09344 0 0
4:52 am 04:52 Mostly Clear 67 19.4 61 16.1 81 81 SSW 10 17 30.03 1017 10 16.09344 0 0
5:52 am 05:52 Mostly Clear 66 18.9 61 16.1 84 84 SSW 9 15 30.03 1017 10 16.09344 0 0
6:52 am 06:52 Mostly Cloudy 67 19.4 61 16.1 81 81 WSW 6 9 30.06 1018 10 16.09344 0 0
7:52 am 07:52 Partly Cloudy 70 21.1 63 17.2 79 79 SW 5 7 30.09 1019 10 16.09344 0 0
8:52 am 08:52 Partly Cloudy 74 23.3 65 18.3 74 74 SW 8 13 30.09 1019 10 16.09344 0 0
9:52 am 09:52 Mostly Sunny 77 25 66 18.9 69 69 WSW 6 9 30.12 1020 10 16.09344 0 0
10:52 am 10:52 Mostly Sunny 80 26.7 66 18.9 62 62 SW 7 11 30.09 1019 10 16.09344 0 0
11:52 am 11:52 Mostly Sunny 83 28.3 66 18.9 57 57 SW 7 11 30.12 1020 10 16.09344 0 0
12:52 pm 12:52 Mostly Sunny 85 29.4 63 17.2 48 48 WNW 8 13 30.12 1020 10 16.09344 0 0
1:52 pm 13:52 Mostly Sunny 86 30 65 18.3 49 49 W 8 13 30.09 1019 10 16.09344 0 0
2:52 pm 14:52 Mostly Sunny 87 30.6 65 18.3 48 48 VRB 6 9 30.09 1019 10 16.09344 0 0
3:52 pm 15:52 Mostly Sunny 88 31.1 67 19.4 50 50 SSW 5 7 30.09 1019 10 16.09344 0 0
4:52 pm 16:52 Mostly Sunny 87 30.6 64 17.8 46 46 S 10 17 30.06 1018 10 16.09344 0 0
5:52 pm 17:52 Mostly Sunny 87 30.6 64 17.8 46 46 SW 9 15 30.06 1018 10 16.09344 0 0
6:52 pm 18:52 Mostly Sunny 86 30 65 18.3 49 49 SW 5 7 30.06 1018 10 16.09344 0 0
7:52 pm 19:52 Partly Cloudy 84 28.9 67 19.4 57 57 SSW 5 7 30.06 1018 10 16.09344 0 0
8:52 pm 20:52 Mostly Cloudy 81 27.2 66 18.9 61 61 SSW 5 7 30.06 1018 10 16.09344 0 0
9:52 pm 21:52 Mostly Cloudy 77 25 67 19.4 71 71 SSW 6 9 30.09 1019 10 16.09344 0 0
10:52 pm 22:52 Cloudy 76 24.4 68 20 77 77 S 5 7 30.09 1019 10 16.09344 0 0
11:52 pm 23:52 Cloudy 76 24.4 67 19.4 74 74 S 7 11 30.12 1020 10 16.09344 0 0

Powered by AerisWeather